User: anonymous   Login
Location: Unspecified
(48.7436°N, 0.0000°E)
Time: 13:25:53
(UTC+00:00)
Language:

Envisat - Orbit

View from above orbital plane
View from above orbital plane
View from above satellite
View from above satellite

Ground track
Ground track

The orbit data is extracted from the following two-line orbital elements,

1 27386U 02009A   19201.95528421 -.00000014 +00000-0 +88914-5 0  9997
2 27386 098.1478 221.3301 0001410 093.9848 325.2785 14.37952981910768
Epoch (UTC): 20 July 2019 22:55:36
Eccentricity: 0.0001410
inclination: 98.1478°
perigee height: 764 km
apogee height: 766 km
right ascension of ascending node: 221.3301°
argument of perigee: 93.9848°
revolutions per day: 14.37952981
mean anomaly at epoch: 325.2785°
orbit number at epoch: 91076

The dashed part of the orbit path shows where the satellite is in the earth's shadow,  

DLR